Upstream stations:
Downstream station:
SHEF ID: SEYT2 Wichita Rive nr Seymour, TX
STATION TYPE:
Regulating: Stage = 12.00, Flow = 2217
PRECIP STAGE RIV-FLOW BAT-LOAD
in ft cfs volt
Ccp-Rev Ccp-Rev Ccp-Rev Ccp-Rev
(US/Central)
03/01 00:00 0.00 7.09 8 12.09
03/01 01:00 0.00 7.08 8 12.09
03/01 02:00 0.00 7.09 8 12.09
03/01 03:00 0.00 7.09 8 12.01
03/01 04:00 0.00 7.09 8 12.01
03/01 05:00 0.00 7.09 8 12.01
03/01 06:00 0.00 7.09 8 11.93
03/01 07:00 0.00 7.10 9 11.93
03/01 08:00 0.00 7.11 9 11.93
03/01 09:00 0.00 7.09 8 12.01
03/01 10:00 0.00 7.08 8 12.33
03/01 11:00 0.00 7.09 8 12.57
03/01 12:00 0.00 7.09 8 12.97
03/01 13:00 0.00 7.11 9 13.13
03/01 14:00 0.00 7.07 7 14.00
03/01 15:00 0.00 7.09 8 14.08
03/01 16:00 0.00 7.11 9 12.65
03/01 17:00 0.00 7.07 7 12.65
03/01 18:00 0.00 7.07 7 12.49
03/01 19:00 0.00 7.06 6 12.25
03/01 20:00 0.00 7.07 7 12.17
03/01 21:00 0.00 7.08 8 12.17
03/01 22:00 0.00 7.10 9 12.17
03/01 23:00 0.00 7.07 7 12.17